Location: Göttingen
(51.5413°N, 9.9158°E)
Time: 19:52:07
(UTC+02:00)

S-56A Canister/Altair - Visible Passes

Search period start: 26 May 2022 00:00
Search period end: 05 June 2022 00:00
Orbit: 634 x 2499 km, 38.9° (Epoch: 26 May)

Date Brightness Start Highest point End Pass type
(mag) Time Alt. Az. Time Alt. Az. Time Alt. Az.
26 May 10.3 00:48:30 10° W 00:59:49 28° SW 01:04:54 22° S visible
26 May 10.3 22:08:28 10° WSW 22:22:25 48° S 22:34:59 10° SE visible
27 May 10.3 00:14:44 10° W 00:26:47 31° SW 00:33:16 21° S visible
27 May 10.9 02:26:26 10° WSW 02:29:17 11° SW 02:30:38 11° SW visible
27 May 10.4 23:41:04 10° W 23:53:40 34° SSW 00:01:41 19° SSE visible
28 May 10.8 01:50:39 10° WSW 01:56:31 14° SW 01:59:03 13° SW visible
28 May 10.5 23:07:30 10° W 23:20:29 37° SSW 23:30:08 16° SSE visible
29 May 10.8 01:15:59 10° W 01:23:42 17° SW 01:27:31 15° SSW visible
29 May 10.5 22:34:03 10° W 22:47:14 39° SSW 22:58:39 12° SE visible
30 May 10.8 00:41:42 10° W 00:50:47 20° SW 00:56:01 15° SSW visible
30 May 10.5 22:00:41 10° W 22:13:56 42° SSW 22:26:37 10° SE visible
31 May 10.8 00:07:42 10° W 00:17:49 22° SW 00:24:34 15° S visible
31 May 10.8 23:33:54 10° W 23:44:46 25° SW 23:53:09 14° S visible
01 Jun 10.9 23:00:14 10° W 23:11:39 28° SW 23:21:47 12° S visible
02 Jun 10.8 22:26:43 10° W 22:38:29 30° SW 22:50:00 10° SSE visible
03 Jun 11.3 00:38:49 10° WSW 00:41:27 11° SW 00:44:03 10° SW visible
03 Jun 10.8 21:53:21 10° W 22:05:16 33° SSW 22:17:20 10° SSE visible
04 Jun 11.2 00:02:56 10° WSW 00:08:33 13° SW 00:14:03 10° SSW visible
04 Jun 11.2 23:28:19 10° WSW 23:35:36 15° SW 23:42:46 10° SSW visible
